Вернуться в каталог

THURAYA 4

АктивенСвязьGEO
NORAD 62483·PAYLOAD·🇦🇪 UAE

Запущен Jan 4, 2025 с Cape Canaveral Space Force Station

Loading…

TLE

СвежийSource: Space-Track

Эпоха: Sep 14, 2026, 14:00 UTC

1 62483U 25001A   26257.58394105  .00000131  00000-0  00000-0 0  9993
2 62483   0.0190 105.7478 0000438 274.2982 228.0255  1.00271920  5074

Отслеживайте THURAYA 4 в реальном времени с AllMySat

Download on the App Store